Regional Weather Roundup
Issued by NWS

Home | Current Version | Previous Version | Text Only | Print | Product List | Glossary On
Versions: 1 2 3 4 5 6 7 8 9 10 11 12 13 14 15 16 17 18 19 20 21 22 23 24 25 26 27 28 29 30 31 32 33 34 35 36 37 38 39 40 41 42 43 44 45 46 47 48 49 50
000
ASUS43 KLOT 101712
RWRIL

ILLINOIS REGIONAL WEATHER ROUNDUP
NATIONAL WEATHER SERVICE CHICAGO/ROMEOVILLE IL
1100 AM CST SAT DEC 10 2016

NOTE: "FAIR" INDICATES FEW OR NO CLOUDS BELOW 12,000 FEET WITH NO
SIGNIFICANT WEATHER AND/OR OBSTRUCTIONS TO VISIBILITY.

* THESE STATIONS ARE NOT UNDER NWS QUALITY CONTROL. THEY ALSO MAY NOT
  REPORT WEATHER SUCH AS PRECIPITATION OR FOG.

ILZ001-002-007-009-015-016-024-101800-
NORTHWEST ILLINOIS

CITY           SKY/WX    TMP DP  RH WIND       PRES   REMARKS
MOLINE         CLOUDY    25  12  58 VRB3      30.49F
STERLING*      CLOUDY    23  15  71 VRB5      30.50F WCI  17
SAVANNA*       CLOUDY    23  15  70 SW3       30.49F
$$

ILZ003-004-008-010-011-017-018-101800-
NORTH CENTRAL ILLINOIS

CITY           SKY/WX    TMP DP  RH WIND       PRES   REMARKS
ROCKFORD       CLOUDY    21  13  71 SW5       30.51F WCI  15
FREEPORT*      CLOUDY    20  15  79 W6        30.51F WCI  12
ROCHELLE*      CLOUDY    21  16  79 SW6       30.50F WCI  14
DE KALB*       CLOUDY    20  15  80 W3        30.49F
$$

ILZ005-006-012>014-019>023-101800-
NORTHEAST ILLINOIS

CITY           SKY/WX    TMP DP  RH WIND       PRES   REMARKS
CHICAGO-OHARE  PTSUNNY   22  13  68 W10       30.49F WCI  11
CHICAGO-MIDWAY PTSUNNY   24  13  62 W9        30.51F WCI  14
AURORA         CLOUDY    22  15  75 SW6       30.51F WCI  14
LANSING*       SUNNY     24  17  74 W9        30.52F WCI  14
JOLIET*        CLOUDY    24  17  72 W8        30.52F WCI  15
WAUKEGAN       MOSUNNY   22  13  68 VRB6      30.47F WCI  14
DUPAGE AIRPORT MOSUNNY   21  13  71 W9        30.49F WCI  11
KANKAKEE*      CLOUDY    25  16  68 CALM      30.54F
WHEELING       MOSUNNY   22  12  65 W9        30.51F WCI  12
MORRIS*        CLOUDY    23  15  69 W3        30.52F
ROMEOVILLE*    MOSUNNY   22  18  84 W7        30.52F WCI  14
NORTHERLY ISL    N/A     24  13  62 W13         N/A  WCI  13
$$

LMZ740>746-101800-
SOUTHERN LAKE MICHIGAN

STATION/POSITION SKY/WX   TEMP    WIND        PRES    VSBY  WAVE
                          AIR SEA DIR/SP/G                  HT/PER
                          (F)     (DEG/KT/KT) (MB)    (MI)  (FT/S)
BURNHAM HARBOR             24     290/  6/ 11   N/A
CALUMET HARBOR             25     240/  5/  9 1032.3F
BURNS HARBOR               24     250/ 11/ 14 1033.5F
$$

ILZ025>027-034>036-040-047-049-050-058-095>099-101800-
WEST-CENTRAL ILLINOIS

CITY           SKY/WX    TMP DP  RH WIND       PRES   REMARKS
QUINCY         CLOUDY    27  11  51 SE10      30.48F WCI  17
GALESBURG*     CLOUDY    25  15  65 S6        30.49F WCI  18
MACOMB*        CLOUDY    26  14  58 SE8       30.53F WCI  18
JACKSONVILLE*  CLOUDY    27  11  52 SE8       30.52F WCI  18
PITTSFIELD*    CLOUDY    29  15  57 SE8       30.51F WCI  21
$$

ILZ028>032-037-038-041>044-048-051>054-059>061-101800-
CENTRAL ILLINOIS

CITY           SKY/WX    TMP DP  RH WIND       PRES   REMARKS
PONTIAC        CLOUDY    25  15  63 W3        30.53F
BLOOMINGTON    CLOUDY    24  12  60 SW3       30.51F
DECATUR        CLOUDY    25  15  66 SW3       30.54F
PEORIA         CLOUDY    25  13  60 S5        30.53F WCI  19
LACON*         CLOUDY    25  12  59 S3        30.52F
LINCOLN*       CLOUDY    26  15  63 S3        30.54F
SPRINGFIELD    CLOUDY    27  14  58 SE6       30.54F WCI  20
TAYLORVILLE    CLOUDY    27  16  63 CALM      30.55F
$$

ILZ033-039-045-046-055>057-062-063-101800-
EAST-CENTRAL ILLINOIS

CITY           SKY/WX    TMP DP  RH WIND       PRES   REMARKS
CHAMPAIGN      CLOUDY    25  15  66 SW8       30.54F WCI  16
RANTOUL*       CLOUDY    27  18  67 SW5       30.53F WCI  22
MATTOON        CLOUDY    25  15  66 SW5       30.53F WCI  19
PARIS*         CLOUDY    26  19  76 SW6       30.56F WCI  19
$$

ILZ079-100>102-101800-
SOUTHWEST ILLINOIS

CITY           SKY/WX    TMP DP  RH WIND       PRES   REMARKS
ALTON          CLOUDY    28  16  59 SE8       30.53F WCI  20
BELLEVILLE     CLOUDY    31  19  62 SE8       30.52F WCI  23
CAHOKIA*       CLOUDY    32  17  54 SE7       30.53F WCI  26
SPARTA*        CLOUDY    31  18  58 S6        30.56F WCI  25
$$

ILZ064>066-069>071-074>076-080>082-084>086-088>090-092>094-101800-
SOUTH-CENTRAL ILLINOIS

CITY           SKY/WX    TMP DP  RH WIND       PRES   REMARKS
CARBONDALE     MOSUNNY   31  19  61 S7        30.57F WCI  24
CAIRO*         MOSUNNY   32  18  57 S5        30.58F WCI  27
EFFINGHAM*     CLOUDY    28  19  68 S5        30.57F WCI  23
MARION         PTSUNNY   32  19  59 S5        30.60F WCI  27
CENTRALIA*     MOSUNNY   32  19  59 SE5       30.55F WCI  27
SALEM*         CLOUDY    31  17  56 SE3       30.56F
METROPOLIS*    PTSUNNY   33  21  60 CALM      30.59F
$$

ILZ067-068-072-073-078-083-087-091-101800-
SOUTHEAST ILLINOIS

CITY           SKY/WX    TMP DP  RH WIND       PRES   REMARKS
LAWRENCEVILLE  CLOUDY    28  17  63 W5        30.60F WCI  23
FLORA*         CLOUDY    30  19  64 S5        30.58F WCI  25
FAIRFIELD*     MOSUNNY   29  18  63 CALM      30.57F
HARRISBURG*    MOSUNNY   32  19  58 S3        30.59F
ROBINSON*      CLOUDY    26  18  69 SW5       30.61F WCI  21
CARMI*         CLOUDY    31  19  61 CALM      30.58F
$$

ABBREVIATIONS USED IN REMARKS
   TC - TEMPERATURE IN CELSIUS
  WCI - WIND CHILL INDEX
   HX - HEAT INDEX
  VSB - VISIBILITY
$$





USA.gov is the U.S. government's official web portal to all federal, state and local government web resources and services.